(118600) = 2000 GD106

Discovered at Socorro on 2000-04-07 by LINEAR.

Orbit

Orbit type: Main Belt

Note: WebGL enabled browser required.

epoch2023-09-13.0
epoch JD2460200.5
perihelion date2021-09-15.85935
perihelion JD2459473.35935
argument of perihelion (°)158.70153
ascending node (°)12.43532
inclination (°)7.08529
eccentricity0.1358572
perihelion distance (AU)2.0365326
Tisserand w.r.t. Jupiter3.5
ΔV w.r.t. Earth (km/sec)9.1
semimajor axis (AU)2.3567085
mean anomaly (°)198.09042
mean daily motion (°/day)0.27242380
aphelion distance (AU)2.677
period (years)3.62
P-vector [x]-0.98746186
P-vector [y]0.12105440
P-vector [z]0.10131585
Q-vector [x]-0.15560711
Q-vector [y]-0.85443852
Q-vector [z]-0.49570278
absolute magnitude16.16
phase slope0.15
uncertainty0
referenceMPEC 2024-A48
observations used691
oppositions18
arc length (days)10684
first opposition used1994
last opposition used2023
residual rms (arc-secs)0.67
perturbers coarse indicatorM-v
perturbers precise indicator003Ek
first observation date used1994-09-05.0
last observation date used2023-12-06.0
computer nameMPCLINUX
JD of orbit computation2456819.425202
perihelion JD uncertainty (days)6.2230E-05
argument of perihelion uncertainty (°)4.0688E-05
ascending node uncertainty (°)3.6599E-05
inclination uncertainty (°)5.6455E-06
eccentricity uncertainty 7.0971E-08
perihelion distance uncertainty (AU)1.7368E-07
Minimum Orbit Intersection Distances (in AU)
for orbit epoch: 2460200.5, reference: E2024-A48
Mercury1.64172
Venus1.31707
Earth1.04211
Mars0.37698
Jupiter2.28557
Saturn6.67586
Uranus16.4103
Neptune27.2038

Observations

705 total observations over interval: 1994 09 05.33119 – 2023 12 06.199824
These data are available for download (format description).

Date (UT) J2000 RA J2000 Dec Magn Location Ref
1994 09 05.33119 00 33 37.28 +00 42 19.4   691 – Steward Observatory, Kitt Peak-Spacewatch MPS 51719
1994 09 05.35444 00 33 36.19 +00 42 14.9 20.3 V 691 – Steward Observatory, Kitt Peak-Spacewatch MPS 51719
1994 09 05.37789 00 33 35.04 +00 42 11.3   691 – Steward Observatory, Kitt Peak-Spacewatch MPS 51719
2000 04 05.33666 13 49 37.98 -13 59 33.0 17.9 R 699 – Lowell Observatory-LONEOS MPS 15762
2000 04 05.35568 13 49 36.86 -13 59 33.3   699 – Lowell Observatory-LONEOS MPS 15762
2000 04 05.37468 13 49 35.65 -13 59 33.1   699 – Lowell Observatory-LONEOS MPS 15762
2000 04 05.39371 13 49 34.50 -13 59 33.1   699 – Lowell Observatory-LONEOS MPS 15762
2000 04 07.33602 13 47 38.12 -13 59 36.0 18.5   704 – Lincoln Laboratory ETS, New Mexico MPS 12841
2000 04 07.35012 13 47 37.28 -13 59 36.0 19.1   704 – Lincoln Laboratory ETS, New Mexico MPS 12841
2000 04 07.36422 13 47 36.33 -13 59 35.1 19.0   704 – Lincoln Laboratory ETS, New Mexico MPS 12841
2000 04 07.37831 13 47 35.39 -13 59 35.0 18.8   704 – Lincoln Laboratory ETS, New Mexico MPS 12841
2000 04 07.39240 13 47 34.42 -13 59 35.3 19.3   704 – Lincoln Laboratory ETS, New Mexico MPS 12841
2000 04 08.34901 13 46 35.96 -13 59 26.9 18.1   704 – Lincoln Laboratory ETS, New Mexico MPS 12841
2000 04 08.36489 13 46 35.01 -13 59 26.4 18.4   704 – Lincoln Laboratory ETS, New Mexico MPS 12841
2000 04 08.38016 13 46 33.99 -13 59 27.0 18.3   704 – Lincoln Laboratory ETS, New Mexico MPS 12841
2000 04 08.39456 13 46 33.01 -13 59 26.5 18.5   704 – Lincoln Laboratory ETS, New Mexico MPS 12841
2000 04 08.41183 13 46 32.02 -13 59 28.0 18.5   704 – Lincoln Laboratory ETS, New Mexico MPS 12841
2000 04 26.23328 13 27 54.56 -13 43 24.3 17.6 R 699 – Lowell Observatory-LONEOS MPS 14398
2000 04 26.25306 13 27 53.40 -13 43 23.0   699 – Lowell Observatory-LONEOS MPS 14398
2000 04 26.27283 13 27 52.14 -13 43 21.1   699 – Lowell Observatory-LONEOS MPS 14398
2000 04 26.29263 13 27 50.90 -13 43 19.5   699 – Lowell Observatory-LONEOS MPS 14398
2000 04 30.21788 13 24 08.91 -13 38 15.6 18.0 R 699 – Lowell Observatory-LONEOS MPS 14398
2000 04 30.23688 13 24 07.80 -13 38 15.1   699 – Lowell Observatory-LONEOS MPS 14398
2000 04 30.25592 13 24 06.83 -13 38 13.3   699 – Lowell Observatory-LONEOS MPS 14398
2000 04 30.27494 13 24 05.66 -13 38 12.1   699 – Lowell Observatory-LONEOS MPS 14398
2000 05 03.20729 13 21 32.79 -13 34 36.3 17.9   704 – Lincoln Laboratory ETS, New Mexico MPS 14398
2000 05 03.22024 13 21 32.07 -13 34 35.8 18.4   704 – Lincoln Laboratory ETS, New Mexico MPS 14398
2000 05 03.23326 13 21 31.39 -13 34 34.5 18.0   704 – Lincoln Laboratory ETS, New Mexico MPS 14398
2000 05 03.24642 13 21 30.69 -13 34 33.6 18.0   704 – Lincoln Laboratory ETS, New Mexico MPS 14398
2000 05 03.25967 13 21 29.99 -13 34 32.6 18.5   704 – Lincoln Laboratory ETS, New Mexico MPS 14398
2000 05 09.17838 13 17 02.42 -13 28 31.7 18.7   704 – Lincoln Laboratory ETS, New Mexico MPS 14398
2000 05 09.19104 13 17 01.85 -13 28 30.5 18.4   704 – Lincoln Laboratory ETS, New Mexico MPS 14398
2000 05 09.20380 13 17 01.36 -13 28 28.9 18.9   704 – Lincoln Laboratory ETS, New Mexico MPS 14398
2000 05 09.21653 13 17 00.75 -13 28 28.2 18.6   704 – Lincoln Laboratory ETS, New Mexico MPS 14398
2001 09 12.26319 22 47 02.53 -13 55 14.9 19.0   704 – Lincoln Laboratory ETS, New Mexico MPS 51719
2001 09 12.30762 22 46 59.81 -13 55 22.8 19.8   704 – Lincoln Laboratory ETS, New Mexico MPS 51719
2001 09 12.32281 22 46 58.89 -13 55 25.6 19.6   704 – Lincoln Laboratory ETS, New Mexico MPS 51719
2002 12 05.29905 06 27 00.26 +34 48 02.4 19.3   704 – Lincoln Laboratory ETS, New Mexico MPS 141570
2002 12 05.31440 06 26 59.39 +34 48 06.8 19.2   704 – Lincoln Laboratory ETS, New Mexico MPS 141570
2002 12 05.32964 06 26 58.49 +34 48 10.7 19.6   704 – Lincoln Laboratory ETS, New Mexico MPS 141570
2002 12 15.29793 06 16 12.12 +35 23 57.1 19.1   704 – Lincoln Laboratory ETS, New Mexico MPS 141570
2002 12 15.31318 06 16 10.99 +35 23 59.7 19.8   704 – Lincoln Laboratory ETS, New Mexico MPS 141570
2002 12 15.32842 06 16 09.80 +35 24 01.5 19.5   704 – Lincoln Laboratory ETS, New Mexico MPS 141570
2002 12 15.34365 06 16 08.56 +35 24 04.3 19.9   704 – Lincoln Laboratory ETS, New Mexico MPS 141570
2002 12 15.35892 06 16 07.48 +35 24 05.7 19.2   704 – Lincoln Laboratory ETS, New Mexico MPS 141570
2003 01 13.23448 05 41 17.59 +35 22 57.5 19.0   704 – Lincoln Laboratory ETS, New Mexico MPS 141570
2003 01 13.26397 05 41 15.78 +35 22 52.5 19.5   704 – Lincoln Laboratory ETS, New Mexico MPS 141571
2003 01 13.27880 05 41 14.94 +35 22 50.5 19.2   704 – Lincoln Laboratory ETS, New Mexico MPS 141571
2003 01 13.29358 05 41 13.99 +35 22 48.4 19.4   704 – Lincoln Laboratory ETS, New Mexico MPS 141571
2005 09 12.35267 01 28 36.88 +09 03 18.5   701 – Junk Bond Observatory, Sierra Vista MPS 141571
2005 09 12.37582 01 28 35.97 +09 03 17.6   701 – Junk Bond Observatory, Sierra Vista MPS 141571
2005 09 12.39894 01 28 35.05 +09 03 15.4   701 – Junk Bond Observatory, Sierra Vista MPS 141571
2005 09 15.44787 01 26 34.19 +08 59 09.7   701 – Junk Bond Observatory, Sierra Vista MPS 141571
2005 09 15.47087 01 26 33.10 +08 59 07.1   701 – Junk Bond Observatory, Sierra Vista MPS 141571
2005 09 26.34262 01 17 44.57 +08 35 51.3 19.9 V 691 – Steward Observatory, Kitt Peak-Spacewatch MPS 142456
2005 09 26.36004 01 17 43.59 +08 35 48.4 19.9 V 691 – Steward Observatory, Kitt Peak-Spacewatch MPS 142456
2005 09 26.37745 01 17 42.60 +08 35 45.6 19.9 V 691 – Steward Observatory, Kitt Peak-Spacewatch MPS 142456
2005 09 27.26174 01 16 54.03 +08 33 19.7 19.6 V 691 – Steward Observatory, Kitt Peak-Spacewatch MPS 142456
2005 09 27.27915 01 16 53.03 +08 33 16.7 19.7 V 691 – Steward Observatory, Kitt Peak-Spacewatch MPS 142456
2005 09 27.29655 01 16 52.04 +08 33 14.0 19.7 V 691 – Steward Observatory, Kitt Peak-Spacewatch MPS 142456
2005 09 29.32758 01 14 57.37 +08 27 22.7 19.7 V G96 – Mt. Lemmon Survey MPS 142456
2005 09 29.33686 01 14 56.83 +08 27 20.9 19.7 V G96 – Mt. Lemmon Survey MPS 142456
2005 09 29.34619 01 14 56.25 +08 27 19.3 19.6 V G96 – Mt. Lemmon Survey MPS 142456
2005 09 29.35554 01 14 55.71 +08 27 17.7 19.6 V G96 – Mt. Lemmon Survey MPS 142456
2005 09 30.30738 01 14 00.92 +08 24 25.8 19.4 V G96 – Mt. Lemmon Survey MPS 143341
2005 09 30.31402 01 14 00.52 +08 24 24.6 19.6 V G96 – Mt. Lemmon Survey MPS 143341
2005 09 30.32728 01 13 59.73 +08 24 22.1 19.3 V G96 – Mt. Lemmon Survey MPS 143341
2005 10 06.30455 01 08 02.68 +08 04 59.9 19.5 R 699 – Lowell Observatory-LONEOS MPS 143341
2005 10 06.32649 01 08 01.14 +08 04 54.3   699 – Lowell Observatory-LONEOS MPS 143341
2005 10 06.34843 01 07 59.79 +08 04 50.7   699 – Lowell Observatory-LONEOS MPS 143341
2005 10 06.37036 01 07 58.57 +08 04 44.2   699 – Lowell Observatory-LONEOS MPS 143341
2005 10 07.21785 01 07 06.89 +08 01 51.4 20.0   704 – Lincoln Laboratory ETS, New Mexico MPS 143341
2005 10 07.21872 01 07 06.83 +08 01 50.5 19.6 V 691 – Steward Observatory, Kitt Peak-Spacewatch MPS 143341
2005 10 07.22869 01 07 06.18 +08 01 48.8 19.5   704 – Lincoln Laboratory ETS, New Mexico MPS 143341
2005 10 07.23611 01 07 05.74 +08 01 47.0 19.7 V 691 – Steward Observatory, Kitt Peak-Spacewatch MPS 143341
2005 10 07.23948 01 07 05.54 +08 01 46.5 19.4   704 – Lincoln Laboratory ETS, New Mexico MPS 143341
2005 10 07.25028 01 07 04.87 +08 01 45.1 19.5   704 – Lincoln Laboratory ETS, New Mexico MPS 143341
2005 10 07.25348 01 07 04.64 +08 01 43.6 19.6 V 691 – Steward Observatory, Kitt Peak-Spacewatch MPS 143341
2005 10 07.26992 01 07 03.61 +08 01 40.0 19.3 V G96 – Mt. Lemmon Survey MPS 143341
2005 10 07.27589 01 07 03.21 +08 01 38.7 19.5 V G96 – Mt. Lemmon Survey MPS 143341
2005 10 07.28179 01 07 02.85 +08 01 37.4 19.3 V G96 – Mt. Lemmon Survey MPS 143341
2005 10 07.28775 01 07 02.49 +08 01 36.1 19.4 V G96 – Mt. Lemmon Survey MPS 143341
2005 10 22.25893 00 51 56.34 +07 08 40.7 19.5 V 703 – Catalina Sky Survey MPS 145793
2005 10 22.26745 00 51 55.76 +07 08 38.2 19.3 V 703 – Catalina Sky Survey MPS 145793
2005 10 22.27596 00 51 55.22 +07 08 36.2 20.3 V 703 – Catalina Sky Survey MPS 145793
2005 10 22.28449 00 51 54.75 +07 08 36.1 19.1 V 703 – Catalina Sky Survey MPS 145793
